Location: Rounton
(54.4000°N, 1.3500°W)
Time: 08:52:18
(UTC+00:00)

A-11 Canister half - Visible Passes

Search period start: 25 February 2024 00:00
Search period end: 06 March 2024 00:00
Orbit: 1512 x 1687 km, 47.2° (Epoch: 24 February)

Date Brightness Start Highest point End Pass type
(mag) Time Alt. Az. Time Alt. Az. Time Alt. Az.
25 Feb 11.0 00:41:44 12° E 00:41:44 12° E 00:42:33 10° E visible
25 Feb 9.6 02:39:54 42° SE 02:39:54 42° SE 02:48:12 10° E visible
25 Feb 9.3 04:38:05 32° WSW 04:43:05 58° S 04:52:34 10° ESE visible
26 Feb 9.8 02:18:01 39° SE 02:18:01 39° SE 02:25:14 10° E visible
26 Feb 9.3 04:16:12 38° SW 04:20:07 58° S 04:29:38 10° E visible
26 Feb 9.6 06:14:45 10° W 06:24:11 49° SSW 06:33:18 10° SE visible
27 Feb 10.0 01:56:07 34° ESE 01:56:07 34° ESE 02:02:16 10° E visible
27 Feb 9.2 03:54:17 45° SW 03:57:09 58° S 04:06:42 10° E visible
27 Feb 9.5 05:52:28 13° W 06:01:15 50° SSW 06:10:26 10° SE visible
28 Feb 10.2 01:34:13 29° ESE 01:34:13 29° ESE 01:39:17 10° E visible
28 Feb 9.2 03:32:23 51° SSW 03:34:11 57° S 03:43:45 10° E visible
28 Feb 9.4 05:30:33 17° W 05:38:19 51° SSW 05:47:34 10° SE visible
29 Feb 10.4 01:12:18 25° ESE 01:12:18 25° ESE 01:16:18 10° E visible
29 Feb 9.1 03:10:28 56° S 03:11:14 57° S 03:20:49 10° E visible
29 Feb 9.4 05:08:39 21° W 05:15:22 52° SSW 05:24:41 10° SE visible
01 Mar 10.6 00:50:23 20° E 00:50:23 20° E 00:53:18 10° E visible
01 Mar 9.2 02:48:33 56° SSE 02:48:33 56° SSE 02:57:52 10° E visible
01 Mar 9.3 04:46:44 27° WSW 04:52:25 53° SSW 05:01:47 10° ESE visible
02 Mar 10.8 00:28:28 16° E 00:28:28 16° E 00:30:18 10° E visible
02 Mar 9.3 02:26:39 52° SE 02:26:39 52° SE 02:34:55 10° E visible
02 Mar 9.3 04:24:49 33° WSW 04:29:28 54° SSW 04:38:54 10° ESE visible
03 Mar 11.0 00:06:34 12° E 00:06:34 12° E 00:07:17 10° E visible
03 Mar 9.5 02:04:44 46° SE 02:04:44 46° SE 02:11:57 10° E visible
03 Mar 9.2 04:02:55 39° WSW 04:06:31 55° SSW 04:16:00 10° ESE visible
03 Mar 9.8 06:01:34 10° W 06:10:08 34° SW 06:18:27 10° SSE visible
04 Mar 9.8 01:42:52 39° ESE 01:42:52 39° ESE 01:49:00 10° E visible
04 Mar 9.2 03:41:02 46° SW 03:43:33 56° S 03:53:06 10° ESE visible
04 Mar 9.8 05:39:13 12° W 05:47:14 35° SW 05:55:41 10° SSE visible
05 Mar 10.0 01:21:00 33° ESE 01:21:00 33° ESE 01:26:02 10° E visible
05 Mar 9.1 03:19:11 53° SW 03:20:35 56° S 03:30:10 10° ESE visible
05 Mar 9.7 05:17:22 16° W 05:24:19 36° SSW 05:32:55 10° SSE visible
